SL-16 R/B, 24298

Orbit data source: Space-Track

SL-16 R/B, 24298 is space debris in LEO originally from a launch on Wed, 04 Sep 1996 UTC launched from the Tyuratam Missile And Space Complex (TTMTR). Debris objects in space refer to the collection of defunct objects orbiting the Earth. Examples of debris include non-operational satellites, rocket bodies, and fragments generated from explosions, collisions, or faulty payload assembly.

Loading next visibility...
Identifier
24298, 1996-051B
Orbit
LEO
Country
Flag of CISCIS
Related business
Manufacturer
Yuzhnoe
Mission
Spacecraft
Bus & Motor
11S772, Unknown motor
Mass
9,000 kg wet, 9,000 kg dry
Launch date (UTC)
1996-09-04 (29 years ago)
Launch vehicle
Unknown
Launch site
Tyuratam Missile And Space Complex (TTMTR)
Object type
Payload
Rocket body
Debris
Shape & HBR
Cyl, 5.2 m
Radar Cross Section
37.829 m², Large (>1 m²)

Expand to show TLE details & history
Last TLE update: 2 days ago

TLE from 2 days ago
0 SL-16 R/B
1 24298U 96051B   25312.70641448 -.00000033  00000-0  89909-5 0  9990
2 24298  70.7598  71.3173 0017866 304.5038  55.4394 14.12392409504561
Epoch: 2025-11-08T16:57Z
TLE epoch observation values (Epoch: 2025-11-08T16:57:14.211Z)
Latitude
0.00001°
Longitude
128.87592°
Altitude
846.266 km
Speed
7.434 km/s
True Right ascension
04h 45m 16s
True Declination
0° 00' 00"
Sunlit
Object was in full shadow at epoch
Visualization orbit readout
Latitude
Unknown
Longitude
Unknown
Altitude
Unknown
Speed
Unknown
Apparent Right ascension
Unknown
Apparent Declination
Unknown
Sunlit
N/A
Visualization observer readout
Local Sidereal Time
03:49:19
Azimuth
Unknown
Elevation
Unknown
Doppler factor
Unknown
Orbital elements
Apogee altitude
862.06 km
Perigee altitude
836.235 km
Semi-major axis
7,227.285 km
Eccentricity
0.00179
Inclination
70.7598°
RAAN
71.3173°
Arg. of periapsis
304.5038°
True anomaly
55.60821°
Mean anomaly
55.4394°
Eccentric anomaly
55.52379°
Mean motion
3.53249 °/min
Orbital period
101.91 mins
BSTAR
0.0000089909
Loading maneuver chart data...
Computing Atmospheric mass density...
Loading historical data...
Loading historical data...
Loading historical data...
Loading historical data...
Loading historical data...
Loading historical data...
Loading historical data...

Documentation

Showing up to 5 results
|